map of KHG home
KHG - Airport
Location
City:  Kashgar, Xinjiang, China
Near (Alt.):Kashi
Name:Kashgar Airport
ICAO:ZWSH
IATA:KHG

Details
Type:Airport (Aerodrome, Airfield)
Use:Public/Civil, International (customs port of entry)
Latitude:3933'N (39.545)
Longitude:7601'E (76.022)
Elevation:4528 ft (1380 m)
Variation:3.96E (WMM2015 magnetic declination)
0.05 annual change
Runways:1
Longest:10499 × 148 ft (3200 × 45 m), paved

Time
Time Zone:UTC+6
Local Time:

Weather
METAR:ZWSH 090900Z 18003MPS 5000 FU NSC 03/M05 Q1016 NOSIG

Related Locations
Nearby:
Farthest:IPC: 11523 mi / 18544 km
Easter Island (Isla de Pascua, Rapa Nui) [Mataveri Intl], VS, CL

Find:

   beyond  
but within

Other Information
Maps:
NOTAMs:
Links:
Sources:

  
flag of China   

Sectional Chart

Flight Planning
at skyvector.com

Satellite Image

Google Maps Satellite view

 

Copyright © 2004-2016 Karl L. Swartz. All rights reserved.
The Great Circle Mapper name and logo are trademarks of the Great Circle Mapper.
All other trademarks mentioned herein belong to their respective owners.
Please see credits for attibutions and further copyright information.

  Follow gcmap on Facebook Follow gcmap on Twitter Follow gcmap on Google+ GCmap on LinkedIn

hCard Microformat

Geo Microformat